Showing default

ES'HAIL 2, 43700

Orbit data source: Space-Track

ES'HAIL 2, 43700 is a payload satellite owned by Es'hailsat (QA) in GEO that was launched on Thu, 15 Nov 2018 UTC via an FALCON 9 launch vehicle from the Air Force Eastern Test Range (AFETR). Payload-class satellites include a variety of spacecraft equipped with specific instruments for various scientific and technological missions. These include communications satellites like Starlink; space stations such as the ISS; scientific satellites like the Hubble; Earth observation satellites from companies like Planet Labs, Umbra, and HawkEye 360; GPS; miniature CubeSats for education and research; and military/defense satellites.

Not visible in the next 10 days
Identifier
43700, 2018-090A
Orbit
GEO
Country
Flag of QAQA / QAT
Related business
Manufacturer
MELCO
Mission
Operational Commercial Communications
Bus & Motor
DS-2000, R-4D-11
Mass
~5,300 kg wet, ~2,000 kg dry
Launch date (UTC)
2018-11-15 (8 years ago)
Launch vehicle
FALCON 9
Launch site
Air Force Eastern Test Range (AFETR)
Object type
Payload
Rocket body
Debris
Shape & HBR
Box + 2 Pan, 12.7 m
Radar Cross Section
52.659 m², Medium (>0.1 m² and < 1m²)

Expand to show TLE details & history
Last TLE update: 2 days ago

TLE from 2 days ago
0 ES'HAIL 2
1 43700U 18090A   26171.32582803  .00000139  00000-0  00000+0 0  9992
2 43700   0.0162  58.1464 0001829  66.6264 286.8419  1.00272471 27701
Epoch: 2026-06-20T07:49Z
TLE epoch observation values (Epoch: 2026-06-20T07:49:11.541Z)
Latitude
0.00805°
Longitude
25.76684°
Altitude
35,783.624 km
Speed
3.075 km/s
True Right ascension
03h 26m 25s
True Declination
0° 00' 29"
Sunlit
Object was in daylight at epoch
Visualization orbit readout
Latitude
Unknown
Longitude
Unknown
Altitude
Unknown
Speed
Unknown
Apparent Right ascension
Unknown
Apparent Declination
Unknown
Sunlit
N/A
Visualization observer readout
Local Sidereal Time
21:39:38
Azimuth
Unknown
Elevation
Unknown
Doppler factor
Unknown
Orbital elements
Apogee altitude
35,795.185 km
Perigee altitude
35,779.761 km
Semi-major axis
42,165.61 km
Eccentricity
0.00018
Inclination
0.0162°
RAAN
58.1464°
Arg. of periapsis
66.6264°
True anomaly
286.82184°
Mean anomaly
286.8419°
Eccentric anomaly
286.83187°
Mean motion
0.25067 °/min
Orbital period
1,436.14 mins
BSTAR
0
Loading maneuver chart data...
Computing Atmospheric mass density...
Loading historical data...
Loading historical data...
Loading historical data...
Loading historical data...
Loading historical data...
Loading historical data...
Loading historical data...
Other satellites on launch #90 in the year 2018 (2018-11-15 UTC)

Documentation

Showing up to 5 results
|